Location: Mahannah Oil Field
(37.4664°N, 96.6003°W)
Time: 03:57:46
(UTC+00:00)

Vanguard 2 - Pass Details

Date: 22 June 2021
Orbit: 552 x 2937 km, 32.9° (Epoch: 28 July)

Event Time Altitude Azimuth Distance (km) Brightness Sun altitude
Rises 02:18:56 0° 271° (W) 5,779 13.0 -5.5°
Reaches altitude 10° 02:23:23 10° 268° (W) 4,400 12.3 -6.2°
Maximum altitude 02:34:12 61° 193° (SSW) 1,465 8.8 -7.9°
Drops below altitude 10° 02:40:35 10° 113° (ESE) 2,664 9.7 -8.9°
Enters shadow 02:40:39 10° 113° (ESE) 2,687 9.7 -8.9°
